Showing default

LEMUR 2 UNTITLED-SC, 63351

Orbit data source: Space-Track

LEMUR 2 UNTITLED-SC, 63351 is a payload satellite owned by OroraTech (US) in SSO that was launched on Wed, 26 Mar 2025 UTC via an ELECTRON launch vehicle from the Rocket Lab Launch Complex (RLLC). Payload-class satellites include a variety of spacecraft equipped with specific instruments for various scientific and technological missions. These include communications satellites like Starlink; space stations such as the ISS; scientific satellites like the Hubble; Earth observation satellites from companies like Planet Labs, Umbra, and HawkEye 360; GPS; miniature CubeSats for education and research; and military/defense satellites.

Loading next visibility...
Identifier
63351, 2025-061A
Orbit
SSO
Country
Flag of USUS
Related business
Manufacturer
Spire/Glasgow
Mission
Operational Commercial Imaging
Bus & Motor
CUBESAT 6U, Unknown motor
Mass
~15 kg wet, ~15 kg dry
Launch date (UTC)
2025-03-26 (9 months ago)
Launch vehicle
ELECTRON
Launch site
Rocket Lab Launch Complex (RLLC)
Object type
Payload
Rocket body
Debris
Shape & HBR
Box + 2 Pan, 0.4 m
Radar Cross Section
0.065 m², Medium (>0.1 m² and < 1m²)

Expand to show TLE details & history
Last TLE update: 1 day ago

TLE from 1 day ago
0 LEMUR 2 UNTITLED-SC
1 63351U 25061A   25346.87702163  .00007087  00000-0  41804-3 0  9998
2 63351  97.5437 319.0754 0019207 182.1859 177.9291 15.11709316 39425
Epoch: 2025-12-12T21:02Z
TLE epoch observation values (Epoch: 2025-12-12T21:02:54.668Z)
Latitude
Longitude
-78.46473°
Altitude
547.327 km
Speed
7.581 km/s
True Right ascension
21h 16m 18s
True Declination
0° 00' 00"
Sunlit
Object was in daylight at epoch
Visualization orbit readout
Latitude
Unknown
Longitude
Unknown
Altitude
Unknown
Speed
Unknown
Apparent Right ascension
Unknown
Apparent Declination
Unknown
Sunlit
N/A
Visualization observer readout
Local Sidereal Time
22:22:47
Azimuth
Unknown
Elevation
Unknown
Doppler factor
Unknown
Orbital elements
Apogee altitude
541.234 km
Perigee altitude
514.705 km
Semi-major axis
6,906.107 km
Eccentricity
0.00192
Inclination
97.5437°
RAAN
319.0754°
Arg. of periapsis
182.1859°
True anomaly
177.93703°
Mean anomaly
177.9291°
Eccentric anomaly
177.93307°
Mean motion
3.78175 °/min
Orbital period
95.19 mins
BSTAR
0.00041804
Loading maneuver chart data...
Computing Atmospheric mass density...
Loading historical data...
Loading historical data...
Loading historical data...
Loading historical data...
Loading historical data...
Loading historical data...
Loading historical data...

Documentation

Showing up to 5 results
|